TimeEDT,TemperatureF,Dew PointF,Humidity,Sea Level PressureIn,VisibilityMPH,Wind Direction,Wind SpeedMPH,Gust SpeedMPH,PrecipitationIn,Events,Conditions,WindDirDegrees,DateUTC
12:54 AM,32.0,25.0,75,30.04,10.0,West,4.6,-,N/A,,Scattered Clouds,280,2013-05-13 04:54:00
1:54 AM,32.0,24.1,73,30.04,10.0,WNW,5.8,-,N/A,,Overcast,290,2013-05-13 05:54:00
2:54 AM,32.0,24.1,73,30.04,10.0,West,6.9,-,N/A,,Scattered Clouds,280,2013-05-13 06:54:00
3:54 AM,33.1,25.0,72,30.04,10.0,West,6.9,-,N/A,,Overcast,280,2013-05-13 07:54:00
4:54 AM,32.0,25.0,75,30.05,10.0,West,6.9,-,N/A,,Partly Cloudy,280,2013-05-13 08:54:00
5:54 AM,30.9,25.0,79,30.06,10.0,West,5.8,-,N/A,,Clear,270,2013-05-13 09:54:00
6:54 AM,30.9,26.1,82,30.07,10.0,West,5.8,-,N/A,,Clear,280,2013-05-13 10:54:00
7:54 AM,35.1,27.0,72,30.09,10.0,WNW,4.6,-,N/A,,Clear,290,2013-05-13 11:54:00
8:54 AM,37.9,27.0,65,30.10,10.0,NW,8.1,16.1,N/A,,Clear,310,2013-05-13 12:54:00
9:54 AM,43.0,25.0,49,30.11,10.0,NW,10.4,18.4,N/A,,Clear,310,2013-05-13 13:54:00
10:54 AM,44.1,23.0,43,30.11,10.0,NW,11.5,19.6,N/A,,Mostly Cloudy,310,2013-05-13 14:54:00
11:54 AM,45.0,21.0,39,30.12,10.0,WNW,10.4,17.3,N/A,,Mostly Cloudy,290,2013-05-13 15:54:00
12:54 PM,48.0,21.0,34,30.12,10.0,West,9.2,16.1,N/A,,Mostly Cloudy,280,2013-05-13 16:54:00
1:54 PM,50.0,19.0,29,30.12,10.0,NW,8.1,-,N/A,,Mostly Cloudy,320,2013-05-13 17:54:00
2:54 PM,51.1,19.0,28,30.11,10.0,NW,11.5,18.4,N/A,,Mostly Cloudy,310,2013-05-13 18:54:00
4:54 PM,52.0,19.0,27,30.09,10.0,West,9.2,-,N/A,,Scattered Clouds,260,2013-05-13 20:54:00
5:54 PM,48.0,28.0,46,30.10,10.0,ESE,13.8,20.7,N/A,,Clear,120,2013-05-13 21:54:00
6:54 PM,45.0,25.0,46,30.11,10.0,ESE,11.5,-,N/A,,Clear,120,2013-05-13 22:54:00
7:54 PM,42.8,24.8,49,30.08,10.0,ESE,9.2,-,N/A,,Clear,120,2013-05-13 23:54:00
8:54 PM,41.0,27.0,57,30.10,10.0,SE,5.8,-,N/A,,Clear,130,2013-05-14 00:54:00
9:54 PM,37.9,25.0,60,30.10,10.0,SE,4.6,-,N/A,,Clear,140,2013-05-14 01:54:00
10:54 PM,36.0,25.0,64,30.10,10.0,SSE,4.6,-,N/A,,Clear,150,2013-05-14 02:54:00
11:54 PM,36.0,27.0,70,30.09,10.0,SSE,4.6,-,N/A,,Clear,150,2013-05-14 03:54:00